Wind_Speed
16 15 11 9 26 23 13 9 12 14 16 12 14 15 11 8 9 9 12 14 16 18 22 23 26 26 31 29 28 6 11 7 11 13 10 8 12 15 16 12 11 16 25 27 35 42 46 53 43
17 15 13 12 14 12 10 11 11 14 12 9 14 14 11 12 13 14 15 13 15 20 23 25 26 28 32 28 24 2 12 3 11 13 10 12 15 11 9 10 13 20 25 31 38 43 48 50 39
19 16 14 6 17 15 16 10 13 15 16 13 17 17 18 19 19 19 16 15 17 21 24 28 30 31 29 25 15 5 9 4 13 7 8 8 10 7 12 15 20 21 27 32 41 46 49 46 39
21 20 19 20 23 19 19 17 15 15 19 17 20 21 22 21 24 25 22 22 19 22 26 29 31 30 29 26 10 5 5 4 12 5 8 9 13 9 11 19 18 25 28 34 41 43 45 41 34
23 23 20 20 21 21 20 19 18 19 19 22 22 24 27 28 28 28 28 29 25 26 28 31 31 29 27 23 14 7 14 10 11 12 9 9 10 18 18 15 17 26 35 41 43 42 38 30 30
25 22 22 23 21 22 20 19 20 20 20 23 24 25 28 30 31 28 29 31 31 30 31 32 30 29 25 24 16 7 14 20 15 15 21 23 27 19 7 18 27 32 38 38 37 35 30 28 25
27 24 25 27 28 24 23 23 23 23 22 23 25 29 30 34 27 30 28 27 34 32 32 31 31 27 25 25 19 13 11 19 13 17 17 21 21 10 16 20 30 37 36 34 32 29 26 27 24
25 26 25 25 26 26 27 28 28 28 28 27 27 29 23 26 32 30 30 35 35 37 34 33 31 26 25 23 21 17 14 11 24 16 11 11 13 14 20 28 30 28 29 30 27 23 26 22 20
27 29 28 28 29 29 30 31 30 31 32 32 31 30 38 43 41 39 33 35 38 36 34 30 27 27 26 22 19 14 13 11 26 15 13 16 12 15 17 19 20 26 29 21 18 26 24 23 17
28 29 29 29 29 28 29 31 33 31 28 24 20 24 37 29 36 34 32 35 33 33 31 29 28 27 26 22 15 11 11 6 20 24 19 13 11 10 16 16 19 23 11 17 22 26 24 25 14
24 27 28 29 30 30 29 28 28 29 30 29 24 23 35 25 32 32 34 34 33 34 31 31 28 28 24 20 18 12 8 6 14 27 19 13 14 11 9 15 16 12 16 24 21 23 23 27 14
24 26 27 27 28 29 30 31 32 33 35 34 34 33 39 50 46 41 38 35 35 34 35 32 28 26 23 20 10 10 8 8 7 24 21 14 19 17 13 13 9 8 15 18 20 22 25 28 11
30 31 32 32 33 34 36 38 39 39 41 42 44 44 44 46 47 44 43 41 40 38 38 36 30 27 25 15 8 8 5 7 10 21 20 25 22 21 20 10 5 7 11 7 17 23 23 22 18
34 36 37 39 40 41 42 41 44 46 45 45 45 47 47 47 47 45 45 44 42 40 39 36 32 29 21 14 6 5 6 6 8 17 21 23 16 20 20 9 6 9 11 10 16 20 24 18 19
38 38 39 40 40 42 41 37 29 29 38 41 42 44 44 44 43 43 43 41 39 37 34 31 28 22 17 13 6 7 10 4 5 8 27 19 21 25 18 11 7 2 6 12 12 21 24 18 22
36 34 32 34 34 35 35 33 37 48 43 39 41 43 43 44 43 42 39 35 32 28 25 21 19 17 17 15 13 9 2 5 3 2 13 12 15 15 14 10 6 4 4 10 11 17 20 20 19
33 34 34 32 30 25 19 17 19 18 18 20 23 27 28 30 34 35 34 32 29 27 24 19 17 17 18 17 13 13 8 5 1 4 12 11 11 18 13 8 8 7 3 6 3 10 13 17 13
25 19 15 10 9 6 5 6 7 8 11 12 12 16 20 22 22 19 22 28 27 28 26 22 19 17 20 20 15 17 10 6 1 5 15 12 14 14 8 7 6 4 3 7 9 14 13 16 12
6 4 2 3 4 5 3 5 7 8 11 13 13 14 15 15 17 17 16 19 27 27 26 23 21 21 23 20 16 20 12 10 5 1 20 20 13 10 9 7 5 3 4 5 6 18 16 18 15
2 3 3 3 5 7 11 11 12 13 15 15 16 17 15 15 15 16 15 17 24 26 24 22 25 24 25 22 19 19 18 15 12 9 20 9 20 16 10 9 9 2 6 6 9 14 19 16 19
4 5 5 6 7 8 10 14 14 16 17 17 18 19 20 17 15 16 16 15 21 25 26 24 24 26 23 24 21 21 17 17 15 16 17 20 19 13 19 19 10 5 7 3 1 6 13 12 10
10 9 11 12 14 16 15 16 16 18 17 21 21 21 22 22 18 16 14 16 17 24 27 27 25 26 23 24 24 24 23 24 21 21 19 22 20 21 19 12 9 7 11 3 1 7 9 13 8
14 17 19 19 21 23 22 24 15 17 21 24 24 24 22 22 22 18 16 14 16 21 26 31 32 29 26 26 29 28 26 29 28 27 26 28 23 24 21 18 14 11 13 8 1 7 7 11 10
19 21 24 25 26 27 26 27 26 22 23 25 24 26 25 24 22 22 19 14 17 20 25 29 31 31 30 29 31 27 26 24 31 28 28 27 24 22 24 20 17 14 10 12 4 7 6 7 6
22 23 25 26 29 32 33 31 31 30 27 29 27 26 30 28 24 23 22 20 16 19 22 27 28 27 27 33 33 29 28 24 19 29 30 23 27 24 23 21 24 18 15 19 18 11 8 5 8
26 28 28 28 30 33 38 36 34 32 29 32 27 28 32 33 28 23 22 22 19 20 22 26 28 25 29 33 34 32 32 27 11 25 29 25 32 30 25 20 21 21 17 18 22 18 11 6 8
30 32 33 33 32 33 37 40 45 35 30 31 31 34 30 34 31 26 21 21 23 20 21 26 26 26 33 34 36 35 34 28 25 25 26 30 32 30 32 27 23 21 20 18 20 18 17 14 8
36 36 35 37 36 36 38 41 42 44 42 37 28 37 34 32 33 28 25 20 23 24 22 29 29 29 35 36 37 36 38 32 32 29 28 30 31 30 33 30 28 33 29 23 25 22 23 17 20
39 37 40 40 41 40 40 48 45 45 45 47 34 40 36 35 31 30 29 24 21 28 28 33 33 30 37 37 37 37 37 40 32 28 27 32 32 32 34 30 31 33 30 30 29 30 24 21 17
42 42 43 44 43 43 43 47 46 52 49 54 41 43 42 39 34 30 30 30 25 27 32 38 36 37 38 39 39 39 36 36 36 31 24 26 30 33 24 23 35 28 31 33 32 34 31 29 26
Wind_Direction
224 239 239 243 195 260 271 264 257 251 251 262 252 260 278 289 306 317 334 352 359 347 344 346 350 348 350 347 345 319 173 229 245 226 228 255 277 283 281 304 268 329 326 332 332 329 332 332 331
222 234 233 236 230 242 268 260 264 250 267 259 263 258 264 276 305 333 330 348 352 343 346 345 347 351 351 351 350 167 181 242 228 216 253 274 284 295 290 274 290 327 325 333 331 331 328 330 331
221 230 224 294 246 232 247 276 280 271 280 266 268 286 284 288 293 318 323 330 346 341 344 343 344 350 350 359 1 120 205 254 211 223 278 262 260 266 261 259 286 318 320 329 334 331 331 329 334
216 223 224 210 240 245 250 256 277 279 266 274 276 286 290 288 298 308 308 311 323 331 335 338 341 345 351 354 6 147 150 255 246 282 268 249 239 282 274 311 284 302 318 335 331 331 329 329 342
221 229 233 236 242 248 254 259 274 282 276 266 276 281 290 289 294 303 307 303 308 317 325 329 336 340 346 350 3 199 215 205 227 238 218 234 238 319 317 301 320 332 335 332 328 329 330 334 345
226 231 233 239 242 252 259 264 271 276 277 272 279 283 291 290 290 293 298 300 307 310 317 322 331 335 340 339 347 328 249 236 236 239 227 251 273 306 280 315 332 335 333 331 328 329 333 344 344
234 234 237 242 246 251 263 267 272 273 272 271 275 277 286 281 278 293 294 296 303 307 310 315 323 328 331 330 327 324 312 243 232 238 246 249 272 280 275 307 317 321 315 328 328 330 340 351 354
234 240 247 248 260 266 266 269 271 276 276 274 274 278 252 281 290 282 288 292 296 299 301 306 314 321 327 321 320 315 313 277 217 236 231 271 255 266 274 300 311 318 318 319 326 332 354 4 6
242 244 252 255 261 265 267 270 272 276 280 281 280 287 288 283 280 280 284 287 292 295 301 302 308 316 322 316 317 318 313 288 214 199 245 257 272 282 293 312 315 307 314 327 338 351 4 14 26
249 252 253 260 263 265 268 274 277 278 279 282 286 295 296 282 271 277 280 281 285 289 295 299 305 312 317 312 317 312 312 258 202 187 208 225 267 286 292 319 305 315 334 354 351 358 10 10 23
250 254 260 266 270 272 274 275 275 275 276 278 271 246 270 255 284 279 280 280 281 286 290 294 300 308 310 310 299 304 307 262 206 197 208 218 242 273 276 305 309 296 5 348 357 7 11 15 35
261 262 264 265 269 271 273 275 274 273 273 272 271 263 261 270 279 279 274 273 276 279 283 288 294 296 299 301 293 301 301 263 225 210 223 213 236 237 258 336 283 348 357 355 4 7 22 19 28
267 268 269 270 271 273 273 273 273 272 273 273 272 271 268 269 273 274 273 273 275 278 281 284 286 288 291 285 285 296 301 236 256 221 220 228 236 236 263 312 291 14 5 343 343 11 19 16 27
270 271 272 272 273 274 274 277 278 275 272 274 273 272 271 270 270 270 271 273 273 274 276 278 279 278 279 255 265 313 277 227 246 230 223 217 235 241 268 284 275 350 15 5 359 9 19 26 31
274 274 275 275 275 276 275 277 277 273 273 276 274 272 271 271 271 271 272 270 273 275 275 274 271 269 254 234 179 273 291 247 259 217 213 225 232 235 251 260 237 64 53 346 11 356 15 30 37
279 280 280 279 280 281 282 277 262 277 285 283 280 277 274 272 270 268 267 268 270 270 271 268 261 246 238 218 186 230 253 243 265 216 180 194 216 231 216 195 150 91 39 22 340 17 17 19 40
282 283 281 284 285 286 288 288 288 296 298 294 288 285 281 278 272 264 260 260 257 256 256 259 254 246 231 210 191 211 236 262 206 199 175 171 173 177 172 147 136 110 27 39 256 324 11 12 29
283 278 281 286 291 291 304 308 302 301 295 299 308 307 298 290 284 278 271 249 246 250 247 249 248 236 214 211 197 203 211 231 82 21 196 161 168 163 187 179 157 166 18 6 356 357 359 12 17
260 256 239 272 289 313 334 321 315 317 320 322 319 318 323 318 288 284 280 267 245 235 243 248 240 213 207 206 201 193 194 159 191 159 167 148 179 176 208 216 229 226 73 46 11 14 2 0 9
230 211 214 256 294 316 315 323 330 337 339 333 325 322 321 331 323 291 281 267 244 237 231 226 215 209 208 206 198 192 182 198 151 132 180 133 191 205 237 209 219 252 177 253 306 338 351 346 3
246 257 266 285 285 288 301 316 323 330 334 335 335 326 319 316 319 321 286 268 241 238 224 213 211 209 208 207 201 190 179 185 179 161 174 188 202 186 191 208 204 250 189 229 38 3 347 11 11
300 301 300 296 297 302 306 305 320 321 327 329 329 332 331 323 310 308 312 269 249 240 224 211 204 201 207 204 201 191 182 172 201 181 175 206 228 214 209 219 234 221 181 123 249 354 330 15 14
299 297 297 298 300 306 306 306 309 311 320 323 322 319 323 329 323 304 304 285 258 247 233 219 216 213 209 202 203 192 189 177 203 181 183 217 228 224 232 230 232 235 234 206 353 336 312 352 4
293 295 296 298 299 300 304 304 309 311 314 314 315 317 318 318 322 318 290 297 258 253 241 231 224 223 214 209 203 199 187 185 200 207 204 206 232 225 231 233 236 241 243 222 241 278 279 336 34
289 292 295 298 298 298 301 301 303 304 307 309 317 318 312 314 313 311 304 273 268 247 245 236 230 227 212 200 206 202 190 169 195 221 215 218 239 238 232 235 237 249 249 234 225 240 257 301 313
293 296 295 296 299 298 297 294 296 294 305 304 313 307 307 307 306 302 303 287 267 242 242 233 229 215 203 199 205 202 190 170 204 211 214 231 239 244 234 237 242 241 245 243 229 243 260 279 288
290 291 293 293 294 293 293 296 292 296 290 298 308 299 300 302 301 295 291 288 259 253 241 223 218 219 208 205 204 202 195 188 181 202 220 227 237 232 230 234 237 243 244 243 236 245 259 267 189
289 288 290 291 291 291 290 287 289 292 296 296 300 292 300 300 297 292 283 282 265 242 233 217 217 221 207 206 204 204 199 189 191 198 221 226 230 230 234 235 240 246 249 242 239 256 252 256 268
286 289 292 290 289 288 286 287 286 289 293 292 301 292 296 300 289 288 283 280 266 246 226 217 220 222 207 209 206 208 205 202 201 203 212 223 227 231 235 235 241 240 239 238 240 249 246 248 258
285 287 287 285 285 286 287 287 287 289 294 298 297 295 302 297 283 281 280 276 272 244 234 218 219 219 214 213 210 207 208 208 214 219 219 230 230 232 243 218 229 237 238 240 239 243 245 254 262
Height
11011 11015 11018 11022 11032 11017 11015 11014 11015 11015 11015 11016 11016 11016 11016 11015 11014 11013 11012 11011 11010 11009 11008 11005 11002 10998 10993 10986 10978 10973 10976 10980 10982 10984 10987 10986 10987 10986 10986 10986 10986 10983 10981 10979 10975 10971 10967 10961 10955
11009 11013 11016 11020 11019 11017 11015 11015 11015 11015 11014 11016 11015 11015 11014 11013 11013 11012 11010 11009 11008 11007 11006 11004 11001 10997 10992 10985 10978 10975 10979 10982 10982 10984 10985 10985 10985 10985 10985 10985 10984 10982 10980 10977 10973 10969 10964 10958 10953
11007 11010 11015 11023 11017 11016 11015 11014 11013 11013 11013 11014 11014 11014 11013 11013 11012 11011 11009 11008 11006 11005 11003 11001 10998 10995 10991 10986 10981 10979 10979 10982 10982 10983 10983 10984 10985 10985 10985 10984 10982 10981 10979 10976 10971 10968 10963 10957 10951
11004 11007 11011 11018 11013 11012 11012 11013 11012 11012 11012 11012 11012 11013 11012 11011 11010 11010 11008 11006 11004 11002 11000 10998 10995 10992 10989 10985 10983 10980 10981 10983 10982 10982 10983 10984 10984 10985 10985 10984 10982 10981 10979 10975 10972 10967 10962 10955 10948
11002 11004 11007 11009 11010 11009 11009 11010 11011 11011 11011 11011 11011 11009 11008 11007 11006 11007 11007 11003 11003 11000 10998 10995 10994 10990 10987 10985 10983 10980 10980 10980 10981 10982 10983 10983 10983 10983 10982 10982 10982 10980 10976 10974 10971 10966 10961 10953 10945
10999 11002 11004 11005 11006 11007 11007 11008 11008 11009 11008 11008 11007 11007 11006 11004 11003 11003 11004 11001 11000 10998 10996 10994 10992 10989 10987 10984 10982 10981 10979 10977 10980 10982 10982 10982 10982 10983 10983 10981 10980 10979 10976 10974 10969 10965 10959 10951 10945
10996 11001 11002 11003 11003 11004 11004 11005 11005 11005 11005 11005 11004 11004 11002 10997 10997 10998 10997 10998 10997 10996 10994 10992 10991 10988 10985 10983 10980 10978 10977 10975 10976 10978 10978 10980 10981 10982 10982 10981 10981 10980 10977 10973 10967 10962 10957 10951 10945
10996 10996 10998 10999 10999 11001 11001 11001 11002 11002 11002 11002 11002 11002 10999 10995 10992 10992 10994 10992 10995 10992 10991 10990 10988 10986 10984 10980 10978 10974 10973 10971 10973 10974 10975 10977 10979 10981 10981 10983 10982 10979 10976 10971 10966 10961 10957 10951 10946
10993 10994 10996 10997 10997 10997 10997 10997 10998 10997 10997 10998 10998 11003 10998 10990 10990 10986 10990 10988 10988 10988 10987 10986 10985 10984 10981 10978 10976 10973 10970 10968 10970 10972 10973 10975 10978 10980 10982 10981 10980 10978 10975 10970 10965 10962 10958 10951 10948
10990 10991 10992 10993 10994 10994 10994 10994 10994 10993 10993 10994 10995 11003 10963 10974 10981 10984 10984 10984 10985 10982 10984 10983 10981 10981 10979 10976 10973 10971 10970 10967 10967 10971 10973 10974 10978 10980 10980 10979 10977 10977 10973 10968 10966 10964 10959 10954 10950
10987 10988 10988 10989 10990 10990 10990 10990 10990 10989 10988 10989 10992 10998 10977 10970 10979 10980 10977 10979 10980 10978 10978 10978 10978 10978 10976 10974 10973 10970 10968 10967 10967 10969 10971 10974 10977 10979 10979 10978 10977 10976 10971 10970 10967 10965 10961 10957 10953
10983 10984 10984 10985 10986 10986 10985 10984 10984 10983 10982 10983 10982 10985 10985 10975 10971 10972 10972 10975 10973 10975 10973 10974 10975 10975 10973 10972 10971 10969 10968 10966 10967 10969 10970 10973 10975 10976 10977 10977 10977 10976 10974 10970 10969 10968 10962 10959 10955
10979 10979 10979 10980 10980 10979 10977 10974 10973 10973 10972 10972 10970 10970 10970 10967 10963 10965 10966 10968 10969 10969 10965 10967 10969 10970 10968 10969 10969 10967 10967 10966 10965 10967 10969 10972 10974 10974 10976 10979 10980 10977 10976 10974 10970 10969 10968 10963 10958
10972 10972 10973 10973 10973 10970 10968 10969 10965 10964 10962 10961 10962 10959 10957 10957 10957 10957 10957 10957 10961 10961 10961 10960 10962 10963 10964 10966 10965 10965 10965 10966 10964 10964 10966 10970 10972 10974 10975 10981 10981 10979 10976 10974 10971 10969 10971 10966 10960
10965 10965 10964 10964 10964 10961 10961 10962 10955 10952 10952 10952 10951 10950 10949 10947 10948 10950 10948 10952 10951 10952 10952 10954 10955 10957 10958 10962 10962 10961 10962 10962 10962 10961 10965 10967 10969 10972 10975 10978 10981 10979 10975 10976 10973 10972 10970 10968 10966
10957 10958 10957 10955 10955 10954 10952 10953 10950 10946 10943 10942 10940 10938 10939 10938 10939 10938 10939 10942 10942 10944 10945 10947 10949 10951 10954 10958 10957 10960 10961 10961 10962 10962 10964 10967 10969 10972 10975 10981 10981 10980 10979 10981 10972 10977 10975 10973 10968
10952 10950 10948 10948 10948 10947 10945 10943 10940 10938 10937 10935 10933 10930 10929 10929 10927 10927 10929 10931 10934 10936 10939 10943 10944 10947 10949 10953 10956 10957 10960 10961 10961 10964 10967 10969 10972 10974 10976 10978 10980 10980 10980 10982 10982 10982 10977 10972 10970
10945 10943 10944 10944 10943 10943 10942 10941 10940 10938 10935 10932 10929 10926 10923 10923 10922 10921 10920 10922 10925 10926 10932 10936 10938 10942 10945 10950 10952 10954 10956 10960 10962 10964 10965 10969 10972 10977 10979 10979 10980 10981 10982 10983 10983 10980 10974 10973 10970
10941 10942 10941 10941 10941 10940 10940 10939 10938 10936 10933 10929 10926 10923 10920 10918 10917 10916 10915 10916 10916 10922 10925 10930 10933 10936 10940 10946 10947 10951 10954 10959 10962 10962 10959 10963 10971 10974 10980 10980 10980 10982 10984 10985 10984 10979 10975 10974 10974
10940 10940 10940 10940 10939 10938 10936 10936 10935 10933 10930 10927 10924 10920 10918 10916 10914 10912 10912 10910 10912 10916 10920 10924 10929 10931 10936 10940 10944 10948 10952 10956 10961 10961 10958 10954 10970 10975 10979 10979 10979 10981 10982 10984 10985 10984 10981 10979 10976
10938 10938 10938 10938 10937 10936 10935 10933 10932 10930 10927 10926 10923 10919 10916 10915 10913 10910 10909 10908 10909 10912 10916 10919 10924 10928 10932 10937 10942 10945 10948 10952 10957 10962 10964 10967 10972 10975 10977 10977 10979 10979 10980 10984 10985 10984 10983 10982 10979
10934 10935 10935 10935 10934 10933 10933 10931 10930 10927 10926 10923 10920 10918 10914 10912 10911 10908 10906 10907 10907 10908 10911 10915 10919 10924 10928 10933 10937 10942 10947 10950 10955 10961 10963 10969 10972 10973 10976 10977 10978 10980 10980 10984 10985 10984 10982 10981 10979
10932 10932 10932 10931 10930 10929 10928 10926 10928 10926 10923 10919 10917 10914 10913 10911 10909 10909 10905 10903 10904 10906 10909 10911 10915 10919 10924 10928 10932 10937 10943 10947 10950 10957 10960 10963 10968 10970 10973 10977 10978 10980 10980 10982 10982 10982 10982 10981 10979
10929 10928 10927 10926 10924 10923 10922 10920 10919 10921 10919 10916 10914 10911 10910 10908 10907 10905 10905 10902 10901 10902 10905 10908 10911 10915 10920 10925 10930 10934 10941 10944 10949 10953 10956 10960 10965 10968 10973 10977 10980 10980 10978 10977 10979 10981 10983 10984 10983
10925 10925 10923 10922 10919 10915 10915 10914 10913 10912 10912 10911 10911 10909 10904 10904 10903 10902 10901 10901 10898 10899 10901 10903 10907 10910 10913 10920 10925 10930 10937 10941 10948 10950 10953 10958 10961 10967 10972 10976 10979 10979 10978 10978 10980 10982 10983 10983 10984
10920 10918 10918 10917 10914 10910 10905 10906 10907 10906 10908 10904 10907 10904 10900 10897 10897 10898 10896 10895 10895 10895 10897 10898 10901 10906 10909 10915 10921 10926 10931 10937 10940 10945 10951 10955 10957 10961 10964 10968 10971 10973 10975 10978 10981 10982 10982 10981 10981
10915 10912 10910 10909 10908 10906 10900 10895 10890 10900 10901 10901 10901 10894 10896 10890 10890 10890 10891 10890 10890 10890 10891 10894 10897 10901 10906 10911 10917 10921 10926 10931 10938 10945 10947 10948 10950 10953 10956 10958 10961 10964 10966 10972 10976 10978 10980 10980 10978
10905 10904 10903 10900 10900 10898 10894 10889 10889 10885 10888 10889 10896 10884 10887 10885 10882 10882 10883 10884 10884 10885 10886 10890 10893 10896 10902 10907 10912 10915 10920 10926 10933 10938 10940 10940 10946 10947 10949 10952 10954 10957 10962 10966 10970 10974 10975 10976 10976
10897 10896 10892 10892 10890 10890 10887 10875 10880 10880 10876 10873 10885 10877 10877 10876 10873 10873 10875 10876 10877 10880 10881 10884 10888 10892 10895 10902 10907 10911 10916 10922 10927 10931 10933 10936 10939 10939 10943 10947 10947 10948 10953 10957 10964 10968 10970 10972 10974
10889 10886 10884 10883 10882 10880 10878 10868 10870 10861 10865 10857 10872 10864 10865 10865 10865 10864 10866 10868 10869 10871 10874 10876 10881 10886 10890 10895 10901 10906 10911 10917 10922 10926 10926 10929 10930 10935 10940 10943 10943 10944 10946 10947 10953 10961 10965 10965 10968